Flag for Canada Weather past 2 weeks in Belleville, Ontario, Canada

Now
77 °F

Broken clouds.


Feels Like: 79 °F
Forecast: N/A
Wind: 10 mph from Northeast

Location: Trenton

Current Time: Aug 22, 2014 at 4:34:28 PM

Latest Report: Aug 22, 2014 at 4:00 PM


Visibility: 15 mi

Pressure: 29.98 "Hg

Humidity: 74%

Dew point: 68 °F

Location of BellevilleLocation

Historic Weather in Belleville — Graph

°F

Belleville temperature yesterday

Maximum temperature yesterday: 77 °F (at 3:00 PM)
Minimum temperature yesterday: 66 °F (at 12:00 AM)
Average temperature yesterday: 70 °F

Past Weeks' High & Low Weather Summary

 TemperatureHumidityPressure
High82 °F (Aug 11, 4:00 PM)100% (Aug 10, 4:00 AM)30.17 "Hg (Aug 10, 4:00 AM)
Low48 °F (Aug 19, 5:00 AM)42% (Aug 7, 3:00 PM)29.68 "Hg (Aug 13, 4:00 AM)
Average65 °F80%29.94 "Hg
* Reported Aug 7 3:00 PM — Aug 22 3:00 PM, Belleville, Weather by CustomWeather, © 2014

Note: Actual official high and low records may vary slightly from our data, if they occured in-between our weather recording intervals... More about our weather records

Advertising

Belleville weather history for previous 24 hours

 ConditionsComfort  
Time TempWeatherWind HumidityBarometerVisibility
3:00 PM
Aug 22
77 °FBroken clouds.5 mph74%29.99 "Hg15 mi
2:00 PM75 °FBroken clouds.2 mph78%29.99 "Hg12 mi
1:00 PM73 °FPartly sunny.6 mph83%30.00 "Hg7 mi
12:00 PM72 °FFog.5 mph88%30.00 "Hg4 mi
11:00 AM70 °FFog.2 mph94%30.01 "Hg3 mi
10:00 AM68 °FFog.3 mph100%30.01 "Hg3 mi
9:00 AM68 °FDrizzle. Fog.3 mph100%29.99 "Hg1 mi
8:00 AM66 °FFog.5 mph100%29.99 "Hg1 mi
7:00 AM66 °FLow clouds.3 mph100%29.98 "Hg7 mi
6:00 AM66 °FFog.3 mph100%29.97 "Hg3 mi
5:00 AM66 °FFog.5 mph100%29.95 "Hg1 mi
4:00 AM66 °FFog.3 mph100%29.96 "Hg1 mi
3:00 AM66 °FFog.No wind100%29.96 "Hg1 mi
2:00 AM68 °FFog.No wind94%29.95 "Hg6 mi
1:00 AM66 °FFog.2 mph100%29.96 "Hg6 mi
12:00 AM66 °FFog.No wind100%29.96 "Hg5 mi
11:00 PM
Aug 21
66 °FPassing clouds.No wind100%29.95 "Hg8 mi
10:00 PM68 °FPassing clouds.No wind94%29.94 "Hg10 mi
9:00 PM68 °FPartly sunny.3 mph94%29.94 "Hg10 mi
8:25 PM68 °FBroken clouds.5 mph94%29.94 "Hg8 mi
8:00 PM70 °FBroken clouds.3 mph94%29.94 "Hg8 mi
7:00 PM70 °FSprinkles. Fog.5 mph94%29.93 "Hg6 mi
6:49 PMN/ASprinkles.5 mphN/AN/A6 mi
6:00 PM70 °FBroken clouds.6 mph88%29.93 "Hg8 mi
5:00 PM72 °FThunderstorms. Broken clouds.10 mph88%29.93 "Hg8 mi
4:00 PM75 °FScattered clouds.12 mph78%29.92 "Hg15 mi
Weather by CustomWeather, © 2014

See weather overviewHow to use our weather pages